Theta_e
318 315 314 315 314 314 313 313 317 315 314 314 313 313 315 316 318 323 327 324 325 319
316 316 314 315 315 314 315 313 314 314 314 314 314 312 312 312 317 322 323 325 325 324
313 313 314 314 314 315 313 313 312 312 312 311 313 313 310 312 315 317 320 321 320 321
311 311 311 311 312 313 313 312 309 308 307 308 311 312 310 311 312 312 313 315 314 312
311 310 309 311 312 312 311 308 307 306 305 306 309 313 309 309 310 308 309 311 313 314
309 308 308 310 312 311 307 306 306 306 305 305 307 309 310 310 308 310 308 309 310 311
307 307 307 308 310 307 306 306 306 306 306 305 306 307 307 309 309 307 309 310 310 310
306 307 308 308 307 306 306 306 306 306 306 306 306 309 309 308 310 309 309 309 310 313
306 306 307 306 305 305 305 306 307 306 306 305 308 304 305 307 308 308 309 310 311 310
306 306 305 304 304 304 305 306 307 307 306 307 309 303 302 304 308 309 308 309 309 309
305 306 304 303 303 304 305 306 307 306 306 308 308 302 300 303 308 310 310 310 309 310
306 305 303 302 303 304 305 306 307 306 305 306 308 301 299 303 310 309 308 309 311 311
307 307 304 304 304 305 306 306 307 305 306 306 307 300 299 302 310 306 307 310 311 304
307 305 305 305 305 305 306 306 306 304 305 307 307 305 298 299 306 306 305 306 309 309
Wind_Speed
15 12 12 12 12 12 11 11 13 12 12 12 12 13 11 13 12 13 12 16 14 8
14 15 14 15 13 11 12 11 12 13 14 14 13 12 13 12 12 11 10 11 11 7
15 16 15 14 14 13 13 13 13 13 13 13 13 13 11 12 13 9 7 6 6 5
13 13 15 13 13 13 14 13 12 10 11 11 14 13 9 12 11 10 7 4 6 4
14 12 13 14 15 13 11 9 11 11 11 11 16 12 10 10 8 7 5 5 7 8
14 12 12 13 13 13 10 12 12 11 11 10 12 10 11 10 7 7 6 4 3 6
14 14 14 15 14 10 12 13 12 11 10 10 10 13 8 10 7 6 5 8 8 8
14 15 15 13 11 12 13 12 12 11 9 9 9 9 9 9 7 8 8 8 9 11
15 15 15 11 13 13 13 12 11 9 8 9 9 7 10 10 5 6 7 7 8 7
15 15 12 13 13 13 12 12 9 8 8 9 9 11 10 8 7 4 5 7 5 6
16 14 13 14 14 13 11 12 7 7 8 7 7 9 9 9 8 6 8 6 7 7
16 13 14 14 14 13 11 10 5 6 6 5 6 8 9 10 8 8 5 6 7 9
16 14 13 13 14 11 11 7 5 4 5 5 5 9 9 10 6 7 5 5 7 3
15 14 13 13 11 11 9 7 6 4 3 4 6 9 10 10 6 4 4 5 7 7
Wind_Direction
307 305 304 302 310 297 300 295 306 299 294 286 290 291 283 277 277 272 251 239 231 229
308 305 301 298 295 288 297 294 298 301 292 290 285 288 288 282 275 271 254 238 231 230
316 306 302 299 292 299 297 292 292 292 294 288 286 281 290 276 269 266 250 219 195 210
312 310 303 298 296 294 289 292 290 293 289 283 274 277 265 281 272 277 253 198 172 162
312 306 300 296 299 294 287 295 281 272 269 272 277 272 264 264 260 256 270 208 222 202
315 305 304 305 301 301 302 284 278 270 263 263 282 282 281 275 270 245 210 226 280 241
310 307 305 303 294 301 293 284 279 270 261 256 259 262 259 264 234 226 227 198 205 231
315 307 306 303 308 298 291 285 280 274 260 252 247 245 262 252 245 228 206 201 208 227
312 311 308 306 303 296 292 289 283 269 252 246 239 216 238 256 267 246 210 201 205 208
316 309 312 307 299 293 292 290 285 280 263 234 241 204 207 220 231 225 228 198 195 191
318 317 310 306 301 295 292 288 279 284 277 232 234 161 177 192 224 206 189 199 164 181
320 314 310 308 304 300 298 297 281 279 269 232 201 177 170 199 194 184 180 195 188 182
319 315 314 308 306 305 300 304 298 284 280 208 173 173 165 195 217 173 185 181 146 100
320 320 316 311 311 311 315 308 300 340 303 168 175 164 162 177 170 133 134 167 190 170